Погода в Увильдах

Россия / Челябинская область     55°34′45″N   60°28′15″E
темп.,
°C
ветер,
м/с
пор.,
м/с
влажн.,
%
обл.,
%
осадки,
мм/ч
давл.,
гПа
погр.,
м
20 января, ср
ср2023:00−16вюв3896100 3.1 1017426
02:00−15вюв3796100 1.6 1016428
05:00−15в2597100 3.2 1015322
08:00−16всв1198100 0.8 101335
11:00−15с1195100 1.3 1013151
14:00−13зсз2693100 0.5 1012529
17:00−14з31087100 0.8 1012746
20:00−19з31289100 0.0 1014589
21 января, чт
чт2123:00−21з3891100 0.0 1015293
02:00−23зюз259289 0.0 1016137
05:00−23з389274 0.0 1017241
08:00−24з389147 0.0 1016234
11:00−20з4138864 0.0 1017513
14:00−17з4108473 0.0 1016486
17:00−20з259040 0.0 1016135
20:00−21з269064 0.0 1016184
22 января, пт
пт2223:00−21з259164 0.0 1016157
02:00−20з2691100 0.0 1016209
05:00−21з2591100 0.0 1016165
08:00−22з239294 0.0 101742
11:00−19зюз258993 0.0 1017251
14:00−16з2484100 0.0 1017496
17:00−17зсз1193100 0.0 101845
20:00−19зсз1197100 0.1 102026
23 января, сб
сб2323:00−20зсз1296100 0.1 102235
02:00−22св3698100 0.1 1025203
05:00−27ссв229999 0.2 102852
08:00−30св1210096 0.0 103119
11:00−29ююв119898 0.1 103288
14:00−25ююв3595100 0.0 1031267
17:00−23ююв4795100 0.0 1030356
20:00−21ююв51098100 0.9 1028413
24 января, вс
вс2423:00−19ю41097100 1.6 1026442
02:00−17ююв3796100 0.4 1024314
05:00−17ююв129899 0.6 102342
08:00−17вюв1198100 0.2 102464
11:00−16вюв2396100 0.4 1024192
14:00−13юв2394100 0.3 1023266
17:00−12юв2496100 0.6 1022217
20:00−12юв1297100 0.4 102243